CW0677 Weather Reports


Display with metric or nautical units.
time (UTC)temp
F
wind
direction
speed
MPH
gust
MPH
rain 1hr
in
rain 24hr
in
rain mn
in
humidity
%
barometer
mb
20260902203118 71 288 2.0 10.0 0.00 0.06 0.06 68 1017.5
20260902201604 70 178 4.0 9.0 0.00 0.06 0.06 69 1017.4
20260902200106 70 155 5.0 10.0 0.00 0.06 0.06 67 1017.5
20260902194605 69 305 5.0 12.0 0.00 0.06 0.06 68 1017.7
20260902193106 69 234 3.0 12.0 0.00 0.06 0.06 69 1017.7
20260902191605 69 264 5.0 12.0 0.00 0.06 0.06 71 1017.8
20260902190107 69 274 4.0 10.0 0.00 0.06 0.06 72 1017.9
20260902184658 67 315 5.0 13.0 0.00 0.06 0.06 78 1018.0
20260902183105 67 264 5.0 9.0 0.00 0.06 0.06 80 1018.0
20260902181605 67 263 4.0 10.0 0.00 0.06 0.06 80 1017.8
20260902180105 64 294 4.0 8.0 0.00 0.06 0.06 89 1017.7
20260902174605 63 274 2.0 6.0 0.00 0.06 0.06 92 1017.8
20260902173105 63 170 2.0 7.0 0.00 0.06 0.06 93 1017.5
20260902171606 63 188 1.0 6.0 0.00 0.06 0.06 93 1017.5
20260902170103 62 0 2.0 4.0 0.00 0.06 0.06 93 1017.3
20260902164607 62 195 1.0 6.0 0.00 0.06 0.06 93 1017.2
20260902163104 61 200 2.0 7.0 0.01 0.06 0.06 93 1017.0
20260902161605 61 0 3.0 6.0 0.01 0.06 0.06 93 1017.0
20260902160121 61 161 2.0 7.0 0.01 0.06 0.06 93 1017.1
20260902154606 61 183 2.0 6.0 0.01 0.06 0.06 93 1017.0
20260902153103 61 139 2.0 6.0 0.02 0.05 0.05 92 1017.0
20260902151614 61 156 2.0 7.0 0.03 0.05 0.05 92 1016.8
20260902150106 61 0 1.0 7.0 0.04 0.05 0.05 92 1016.8
20260902144604 61 137 2.0 5.0 0.05 0.05 0.05 92 1016.6
20260902143110 61 163 1.0 4.0 0.03 0.03 0.03 91 1016.6
20260902141600 61 173 1.0 5.0 0.02 0.02 0.02 91 1016.2
20260902140059 61 0 1.0 6.0 0.01 0.01 0.01 90 1016.1
20260902134612 62 219 1.0 9.0 0.00 0.00 0.00 89 1016.0
20260902133106 62 213 2.0 7.0 0.00 0.00 0.00 89 1016.1
20260902131607 61 179 2.0 8.0 0.00 0.00 0.00 89 1015.9
20260902130104 61 181 2.0 8.0 0.00 0.00 0.00 89 1015.8
20260902124603 61 156 2.0 7.0 0.00 0.00 0.00 89 1015.7
20260902123103 61 196 2.0 6.0 0.00 0.00 0.00 88 1015.7
20260902121603 61 188 2.0 6.0 0.00 0.00 0.00 88 1015.8
20260902120105 62 0 0.0 4.0 0.00 0.00 0.00 87 1015.9
20260902114607 61 127 0.0 3.0 0.00 0.00 0.00 88 1015.8
20260902113106 61 0 1.0 3.0 0.00 0.00 0.00 87 1015.9
20260902111601 61 119 1.0 4.0 0.00 0.00 0.00 87 1015.8
20260902110105 61 106 1.0 3.0 0.00 0.00 0.00 88 1015.8
20260902104622 61 128 1.0 4.0 0.00 0.00 0.00 87 1015.9
20260902103103 61 0 0.0 3.0 0.00 0.00 0.00 86 1016.1
20260902101605 62 149 2.0 4.0 0.00 0.00 0.00 84 1016.1
20260902100130 62 87 0.0 4.0 0.00 0.00 0.00 84 1016.2
20260902094607 62 115 1.0 3.0 0.00 0.00 0.00 85 1016.2
20260902093120 62 0 1.0 3.0 0.00 0.00 0.00 85 1016.3
20260902091619 62 140 1.0 4.0 0.00 0.00 0.00 85 1016.3
20260902090106 62 0 0.0 1.0 0.00 0.00 0.00 85 1016.5
20260902084608 62 0 0.0 3.0 0.00 0.00 0.00 85 1016.7
20260902083110 62 167 0.0 2.0 0.00 0.00 0.00 86 1016.7
20260902081612 62 0 0.0 1.0 0.00 0.00 0.00 86 1016.6
20260902080108 62 0 0.0 3.0 0.00 0.00 0.00 86 1016.7
20260902074605 62 0 0.0 3.0 0.00 0.00 0.00 87 1016.6
20260902073103 62 236 0.0 3.0 0.00 0.00 0.00 87 1016.5
20260902071628 62 0 0.0 3.0 0.00 0.00 0.00 87 1016.6
20260902070107 61 225 0.0 3.0 0.00 0.00 0.00 87 1016.6
20260902064611 61 247 1.0 2.0 0.00 0.00 0.00 88 1016.5
20260902063133 61 0 0.0 1.0 0.00 0.00 0.00 88 1016.5
20260902061602 61 0 0.0 3.0 0.00 0.00 0.00 88 1016.5
20260902060140 61 0 0.0 1.0 0.00 0.00 0.00 87 1016.5
20260902054601 61 0 0.0 2.0 0.00 0.00 0.00 87 1016.5
20260902053105 61 0 0.0 2.0 0.00 0.00 0.00 87 1016.6
20260902051613 62 0 0.0 3.0 0.00 0.00 0.00 86 1016.5
20260902050113 62 0 1.0 5.0 0.00 0.00 0.00 85 1016.5
20260902044601 62 251 2.0 5.0 0.00 0.00 0.00 84 1016.6
20260902043111 63 239 2.0 6.0 0.00 0.00 0.00 83 1016.5
20260902041601 63 240 1.0 4.0 0.00 0.00 0.00 82 1016.4
20260902040104 63 0 0.0 4.0 0.00 0.00 0.00 81 1016.1
20260902034556 63 240 2.0 6.0 0.00 0.00 0.00 80 1015.9
20260902033109 63 243 1.0 5.0 0.00 0.00 0.00 79 1015.9
20260902031604 63 247 1.0 3.0 0.00 0.00 0.00 79 1016.0
20260902030100 64 0 0.0 3.0 0.00 0.00 0.00 78 1015.8
20260902024611 64 236 1.0 4.0 0.00 0.00 0.00 77 1015.7
20260902023100 65 288 2.0 7.0 0.00 0.00 0.00 76 1015.8
20260902021603 65 223 2.0 11.0 0.00 0.00 0.00 75 1015.8
20260902020128 65 259 6.0 11.0 0.00 0.00 0.00 74 1015.6
20260902014601 66 285 8.0 14.0 0.00 0.00 0.00 72 1015.7
20260902013106 67 338 5.0 13.0 0.00 0.00 0.00 71 1015.7
20260902011601 67 258 6.0 15.0 0.00 0.00 0.00 69 1015.7
20260902010106 68 252 6.0 13.0 0.00 0.00 0.00 70 1015.7
20260902004604 67 277 9.0 16.0 0.00 0.00 0.00 68 1015.6
20260902003105 67 273 8.0 18.0 0.00 0.00 0.00 66 1015.4
20260902001601 67 241 8.0 14.0 0.00 0.00 0.00 66 1015.5
20260902000105 68 344 7.0 18.0 0.00 0.00 0.00 63 1015.5
20260901234612 69 244 7.0 16.0 0.00 0.00 0.00 65 1015.4
20260901233104 70 284 6.0 14.0 0.00 0.00 0.00 64 1015.4
20260901231559 70 255 8.0 16.0 0.00 0.00 0.00 64 1015.4
20260901230105 70 300 7.0 15.0 0.00 0.00 0.00 63 1015.4
20260901224612 70 252 6.0 15.0 0.00 0.00 0.00 64 1015.4
20260901223116 70 253 8.0 15.0 0.00 0.00 0.00 61 1015.5
20260901221632 71 281 9.0 15.0 0.00 0.00 0.00 59 1015.5
20260901220110 72 301 7.0 20.0 0.00 0.00 0.00 60 1015.6
20260901214604 71 292 9.0 16.0 0.00 0.00 0.00 60 1015.5
20260901213108 71 258 7.0 15.0 0.00 0.00 0.00 59 1015.5
20260901211604 71 294 4.0 16.0 0.00 0.00 0.00 60 1015.5
20260901204602 71 187 5.0 12.0 0.00 0.00 0.00 62 1015.5